WMKJWSSL

Guest
Details From WMKJ - Johor Bahru Sultan Ismail
To WSSL - Seletar
Flight Number -
Tags decoded
Created
Modified
Stats Distance 18 nm / 33 km
Max Altitude 0 ft / 0 m
Waypoints 2
Social Downloads 1
Likes 0
Share VATSIM

Download

Looking for another format? Having issues loading an existing format? Contact us
Advertisement - Login to hide

Notes

Requested: WMKJ XFLED XTEBR XPOIN WSSL Unmatched points: XFLED XTEBR XPOIN

Route

WMKJ WSSL

ID Type Via Altitude Latitude Longitude Leg Dist Tot Dist Heading (true) Name
O WMKJ APT - 0 ft / 0 m 1.64131˚ 103.66962˚ - 0 nm - Johor Bahru Sultan Ismail
O WSSL APT - 0 ft / 0 m 1.41643˚ 103.86730˚ 17 nm 17 nm 139° / 139° Seletar

Altitude Profile

Advertisement - Login to hide

WMKJ

Details ICAO WMKJ (JHB)
Name Johor Bahru Sultan Ismail
Region Malaysia (Peninsular Malaysia)
Timezone Asia/Kuala_Lumpur (UTC+8.0)
Stats Elevation 135 ft / 41 m (AMSL)
Location 1.641307° 103.669618°
Runways 1
Magnetic Variation 0.193° E

METAR

WMKJ 271800Z 15003KT 070V210 7000 -RA FEW008 FEW017CB SCT020 BKN280 26/25 Q1009

Decode

TAF

TAF TAF WMKJ 271700Z 2718/2818 35005KT 4000 BR FEW010 FEW017CB BECMG 2800/2802 9000 FEW017CB TEMPO 2806/2810 15007KT 3000 TSRA FEW015CB SCT018

Decode

Departure Runways

ID Width Length Bearing (true) Bearing (mag) Surface Threshold Offset Overrun Length
16 150 ft / 46 m 11,014 ft / 3,357 m 159.95° 159.76° Asphalt 0 ft / 0 m 200 ft / 61 m
34 150 ft / 46 m 11,014 ft / 3,357 m 339.95° 339.76° Asphalt 0 ft / 0 m 200 ft / 61 m

WSSL

Details ICAO WSSL (XSP)
Name Seletar
Region Singapore
Timezone Asia/Singapore (UTC+8.0)
Stats Elevation 36 ft / 11 m (AMSL)
Location 1.416427° 103.867299°
Runways 1
Magnetic Variation 0.216° E

METAR

WSSL 271800Z 00000KT 9999 FEW016 BKN150 28/24 Q1009

Decode

TAF

TAF AMD WSSL 271455Z 2715/2818 25007KT 9999 FEW018CB SCT020 TEMPO 2716/2720 3000 TSRA FEW012CB BKN015 PROB30 TEMPO 2806/2809 3000 TSRA FEW012CB BKN015

Decode

Destination Runways

ID Width Length Bearing (true) Bearing (mag) Surface Threshold Offset Overrun Length
03 151 ft / 46 m 5,243 ft / 1,598 m 33.15° 32.93° Asphalt 0 ft / 0 m 197 ft / 60 m
21 151 ft / 46 m 5,243 ft / 1,598 m 213.15° 212.93° Asphalt 0 ft / 0 m 197 ft / 60 m